Погода в Большой Орше

Россия / Республика Марий Эл     56°55′18″N   47°49′36″E
темп.,
°C
ветер,
м/с
пор.,
м/с
влажн.,
%
обл.,
%
осадки,
мм/ч
давл.,
гПа
погр.,
м
28 сентября, вт
вт2800:00+2св410885 0.0 1025335
03:00+1св410895 0.0 1027268
06:000св310925 0.0 1029227
09:00+4св487017 0.0 1029485
12:00+8св565335 0.0 10291027
15:00+9св46465 0.0 10291175
18:00+4ссв3568100 0.0 103090
21:00+4ссв2673100 0.0 1031133
29 сентября, ср
ср2900:00+3с247874 0.0 103190
03:00+1с2385100 0.0 103257
06:000ссв239073 0.0 103259
09:00+6ссв3464100 0.0 1033380
12:00+8с345194 0.0 1032926
15:00+9с345443 0.0 10311038
18:00+5ссв227246 0.0 103216
21:00+4ссз118081 0.0 103210
30 сентября, чт
чт3000:00+4сз1185100 0.0 103210
03:00+5зсз2483100 0.0 1032115
06:00+5з2586100 0.0 1032148
09:00+8зсз247471 0.0 1032301
12:00+12сз346097 0.0 10311157
15:00+9зсз267788 0.0 1030364
18:00+8з2482100 0.0 103072
21:00+9з3684100 0.0 1029157
1 октября, пт
пт100:00+7ссз25955 0.0 103088
03:00+5ссз24955 0.0 103074
06:00+5ссз259655 0.0 103190
09:00+9с347780 0.0 1031297
12:00+12с236387 0.0 1031938
15:00+13ссз245960 0.0 10311189
18:00+9ссз118251 0.0 103110
21:00+8ссз118658 0.0 103210
2 октября, сб
сб200:00+7сз11894 0.0 103210
03:00+6зсз22925 0.0 103211
06:00+6зсз229491 0.0 103221
09:00+10зсз2380100 0.0 1033270
12:00+14зсз236570 0.0 1032747
15:00+15зсз346276 0.0 10311002
18:00+10з358695 0.0 103288
21:00+8з239365 0.0 103349